Wind_Speed
15 16 11 6 2 2 5 6 5 3 1 1 3 5 6 10 12 8 13 6 5 5 6 7 7 7 9 11 11 11 13 14 15 15 14 13 13 12 11 10 9 8 6 5 5 5 5 5 4
14 17 14 7 4 4 4 6 6 4 6 7 9 11 13 13 14 14 12 7 9 5 5 6 7 6 7 9 10 9 11 11 12 12 12 12 13 14 13 13 12 11 9 7 5 4 3 4 4
14 19 15 5 6 5 6 7 7 7 8 10 13 16 17 16 17 14 9 9 9 6 5 6 7 7 8 8 8 7 7 9 11 13 14 14 14 14 13 13 13 13 13 13 9 6 4 3 4
14 18 16 11 10 9 7 4 4 7 10 12 13 13 13 12 13 15 11 12 10 7 7 8 10 11 9 7 7 8 9 10 12 13 12 13 13 13 13 13 13 12 12 13 12 11 7 5 4
17 16 16 15 13 12 11 12 12 11 13 15 17 16 15 12 12 9 10 10 9 9 8 11 11 10 9 7 9 10 10 10 10 10 10 11 12 12 13 13 11 11 11 10 11 11 10 8 6
18 19 19 19 18 16 13 12 13 16 15 15 18 19 18 14 10 8 9 10 9 8 9 10 9 10 9 9 10 10 9 8 7 8 8 10 11 12 12 11 10 9 9 9 10 9 7 6 6
19 21 23 22 20 21 19 19 20 18 19 20 20 23 20 13 12 10 10 11 10 9 8 10 9 9 9 9 9 8 6 5 4 5 5 7 9 11 12 10 9 8 8 8 9 9 10 10 8
22 21 23 27 26 26 23 21 20 18 19 21 18 15 10 12 13 13 13 13 12 10 9 9 9 10 10 10 8 7 5 4 2 2 2 5 10 13 13 10 9 8 8 8 8 9 10 11 12
24 25 29 28 28 27 24 23 20 18 21 19 17 16 16 16 12 14 15 14 13 11 10 10 10 11 10 10 9 8 7 5 4 3 4 7 11 14 14 11 8 8 8 8 9 10 12 12 14
24 29 30 28 29 27 25 25 22 22 23 21 15 13 15 15 16 15 15 15 15 13 12 12 13 14 13 12 11 10 9 8 7 7 8 11 14 16 15 11 8 9 9 9 11 12 14 15 15
24 27 26 28 29 29 28 28 28 28 28 18 12 15 17 16 17 17 18 17 17 18 18 16 15 17 17 16 14 13 12 11 10 11 12 14 17 18 15 11 10 9 11 13 13 13 14 15 16
24 23 24 24 25 29 29 31 34 34 25 20 18 18 20 19 17 16 19 19 20 19 20 20 19 20 20 19 18 16 15 15 14 14 16 18 19 19 16 13 11 11 14 16 16 15 15 15 16
23 22 24 23 25 27 31 32 33 36 28 26 23 22 22 22 21 20 20 24 25 26 24 23 23 23 23 23 21 20 20 19 18 18 19 20 21 19 16 14 13 14 15 17 17 17 17 16 16
23 23 22 25 26 30 32 31 33 31 26 27 27 26 26 25 25 25 27 25 25 27 27 25 26 26 26 26 25 24 23 22 21 22 21 22 22 20 17 16 15 16 17 18 18 18 18 19 19
26 27 26 26 27 32 33 37 39 29 29 31 32 30 29 28 28 28 28 28 25 25 28 30 29 29 28 28 28 28 27 25 24 24 23 23 22 20 18 17 17 17 19 20 20 20 20 20 20
24 27 30 28 25 29 32 45 33 33 33 34 33 32 32 30 28 28 30 30 30 29 29 31 33 31 30 31 30 31 29 27 26 25 25 24 23 21 19 19 19 20 20 21 22 22 22 22 22
27 30 33 33 28 28 33 42 35 31 31 31 30 30 30 29 29 30 30 30 31 31 32 33 33 32 31 32 33 32 31 29 27 27 26 25 24 22 21 21 22 22 22 23 24 24 24 24 23
30 30 33 33 31 35 38 45 38 35 36 36 34 33 33 32 31 27 24 28 30 30 33 36 35 34 33 34 35 33 31 29 28 29 28 27 26 24 23 24 24 24 25 25 26 26 26 26 25
34 37 40 38 35 41 43 48 45 39 41 39 38 37 35 36 30 31 29 29 30 33 36 39 38 36 35 35 34 32 30 30 31 31 30 28 27 25 24 25 25 27 27 27 28 28 28 29 28
32 37 41 41 37 43 46 57 52 47 49 46 42 42 40 38 35 36 35 35 36 35 35 39 39 37 36 35 34 34 32 34 33 32 30 30 29 27 26 27 27 28 29 29 29 30 30 29 31
30 34 39 45 42 45 47 67 56 53 49 48 44 39 38 39 38 36 38 38 40 41 38 40 39 36 34 33 36 35 35 35 34 31 32 32 29 27 27 28 29 29 31 31 31 32 31 30 32
38 32 35 35 32 32 35 36 40 41 49 45 39 30 29 30 28 28 33 37 38 40 41 44 41 39 37 35 36 37 35 35 33 33 34 31 29 28 29 30 30 30 31 31 32 33 33 32 32
39 33 27 33 36 38 38 17 65 14 41 48 50 35 23 21 26 31 29 29 29 34 35 34 40 40 37 35 35 36 36 35 34 33 32 29 29 29 30 30 30 31 32 32 33 33 34 33 33
31 30 26 29 28 15 40 18 70 50 36 30 11 7 27 28 21 25 27 29 32 36 39 40 40 40 37 35 36 35 34 33 33 31 30 29 29 30 30 30 31 31 32 33 33 34 34 34 35
31 34 11 5 5 12 14 20 62 29 19 29 33 36 32 33 35 30 30 34 29 33 35 35 36 34 37 37 36 33 32 32 31 30 29 29 29 30 31 30 30 32 32 33 34 34 33 34 36
22 23 15 6 4 8 10 18 33 25 27 33 40 45 44 26 22 23 23 25 23 22 22 19 24 28 33 35 33 30 31 31 30 30 29 29 30 31 31 30 31 32 32 33 34 33 33 35 36
18 23 30 35 44 23 39 46 53 50 40 24 20 27 22 22 40 31 27 25 25 19 21 20 22 29 30 31 29 29 30 30 29 29 29 30 30 30 30 30 31 32 33 34 34 33 34 36 37
33 32 21 18 9 20 21 29 32 37 38 43 39 29 34 30 18 19 17 24 28 26 26 24 23 27 30 27 27 28 28 29 29 31 31 30 30 30 29 30 31 31 32 33 34 33 35 36 37
30 32 34 36 28 9 11 16 25 28 25 22 22 29 28 20 18 22 26 17 18 26 27 26 27 29 28 29 28 28 29 31 32 32 31 30 30 29 29 30 31 31 32 33 33 33 35 37 37
32 37 35 17 11 19 16 22 40 38 36 35 38 44 46 48 47 38 29 23 23 24 21 30 31 32 30 29 24 25 30 32 32 31 30 30 29 29 30 30 30 31 32 32 33 34 36 37 37
Wind_Direction
197 199 188 180 233 254 195 185 211 209 226 292 320 306 293 297 309 300 319 290 169 153 115 118 117 112 108 103 96 92 87 77 68 65 66 60 53 48 41 32 31 34 27 19 14 5 17 21 28
197 192 184 212 251 245 215 224 232 248 265 281 297 303 293 285 292 299 303 240 207 165 150 136 123 120 113 113 101 86 78 76 72 68 59 49 49 50 49 46 40 37 35 32 18 11 12 355 5
200 194 201 232 256 264 258 258 250 268 283 287 289 288 281 275 279 281 278 222 226 225 193 163 145 137 133 115 99 94 87 86 79 75 68 62 54 45 39 37 35 37 38 36 30 17 357 350 344
213 212 224 243 257 262 265 272 287 282 286 286 290 285 273 277 267 269 255 231 239 218 201 184 169 158 147 120 112 111 102 94 85 79 71 60 52 42 30 26 25 26 28 29 29 26 18 346 331
224 224 235 245 256 263 259 264 273 290 281 281 285 283 282 275 267 258 227 215 209 204 197 192 181 163 144 137 124 115 107 99 89 78 64 53 43 35 25 15 11 9 14 10 11 14 16 7 355
230 230 239 246 250 257 262 271 278 282 294 293 278 283 286 281 269 235 213 213 207 200 199 194 171 157 149 145 135 126 117 109 96 82 63 46 32 22 12 7 359 359 353 353 354 354 349 346 342
232 235 241 250 255 257 263 273 279 282 287 296 288 280 278 285 267 239 220 216 209 197 193 194 179 155 152 154 147 139 139 127 111 93 64 35 18 8 358 350 344 345 343 342 335 326 323 324 317
234 238 243 246 253 257 260 268 276 269 282 286 276 273 282 283 265 240 219 219 214 202 196 190 180 173 174 168 167 168 177 171 160 145 22 355 352 352 346 337 321 325 328 332 324 313 308 305 303
235 241 243 245 249 254 264 262 269 262 271 282 275 282 284 279 273 248 235 224 224 218 215 204 197 200 200 194 194 197 206 215 239 263 309 326 333 337 338 327 313 309 311 316 316 310 300 292 289
238 242 248 253 254 260 260 259 266 265 271 272 280 293 286 272 267 256 243 232 228 229 234 227 223 227 221 220 220 223 228 235 251 274 296 312 321 326 326 314 308 304 303 306 307 301 293 287 282
252 254 257 258 258 258 257 258 261 264 265 271 284 285 276 264 260 257 254 242 233 231 232 235 234 239 242 237 235 240 247 254 258 275 293 307 314 316 314 304 302 300 298 302 304 298 291 286 282
257 261 263 262 260 256 256 257 258 264 273 273 274 275 273 268 262 258 256 251 241 242 245 244 241 243 247 249 248 251 256 263 269 281 294 303 308 308 305 300 298 299 302 305 306 302 296 288 282
262 268 265 266 258 255 254 255 259 262 265 269 271 271 273 275 269 260 254 251 247 240 240 244 245 247 250 252 254 257 261 265 273 281 291 300 304 303 298 296 294 297 300 302 303 301 297 292 286
266 268 267 260 257 256 255 256 258 261 265 272 274 273 272 271 270 262 254 252 251 249 246 246 247 247 249 253 257 261 264 268 273 281 290 297 299 297 293 293 292 295 298 300 300 301 300 297 294
264 268 267 263 261 260 262 262 258 273 272 272 274 275 272 271 267 264 262 259 253 248 246 246 246 246 249 253 257 262 265 269 274 280 288 294 295 293 291 289 291 293 296 300 302 303 301 297 294
270 274 276 278 274 270 268 269 272 274 270 271 273 273 273 271 270 266 258 259 257 251 248 248 247 247 247 252 257 260 264 269 274 280 285 289 291 290 290 288 289 291 295 300 302 302 299 296 293
267 268 275 283 286 282 275 278 280 278 276 273 272 272 271 270 267 265 263 260 260 259 254 254 252 251 251 253 257 261 264 269 274 279 282 284 287 287 288 288 289 290 294 298 300 299 297 295 294
278 278 285 288 292 289 283 280 279 280 277 274 272 270 268 268 270 273 270 262 258 258 256 255 254 251 251 253 256 260 266 271 274 275 278 280 283 284 285 288 289 291 294 297 299 299 299 297 293
276 276 278 280 282 284 281 281 281 281 276 273 273 274 273 273 274 266 265 263 258 254 253 254 254 253 253 256 260 263 268 267 267 270 274 277 280 281 283 286 287 290 293 297 299 300 301 299 296
275 277 278 284 285 282 286 282 281 277 275 275 276 275 277 277 272 270 269 268 264 259 255 255 256 255 255 255 258 259 261 262 264 269 273 274 275 278 282 284 285 288 293 297 300 301 301 298 297
277 280 285 285 289 284 294 286 285 283 278 278 279 281 279 280 280 275 272 270 266 262 260 259 259 258 258 256 255 256 258 262 267 271 269 267 270 275 280 282 285 289 293 298 300 301 300 298 299
284 296 288 289 286 286 295 292 286 283 285 282 285 288 294 292 287 277 273 263 265 264 264 261 256 253 253 253 253 257 261 263 264 264 263 264 266 272 277 280 285 288 293 297 299 300 299 300 304
289 296 289 284 281 288 276 263 283 270 280 283 292 293 296 313 288 266 271 265 262 258 264 265 258 251 249 248 251 256 258 259 259 260 259 259 263 270 275 279 283 286 292 296 298 299 300 303 309
287 284 281 282 272 259 264 233 280 283 283 300 267 247 306 304 290 293 285 276 267 262 260 262 255 247 244 243 248 254 256 254 255 255 254 257 262 269 273 277 281 287 292 295 297 298 300 304 310
273 271 285 275 189 247 278 223 258 271 297 289 280 288 293 298 298 282 280 281 272 268 259 257 255 248 240 241 246 251 252 251 251 248 251 256 263 269 272 276 281 287 292 295 296 298 300 305 309
301 291 240 256 234 280 293 243 260 282 289 290 288 288 291 286 311 290 292 277 277 259 247 252 252 248 244 241 245 249 246 246 244 246 251 258 264 268 271 276 281 288 292 293 295 298 302 306 310
302 282 285 268 274 277 270 269 278 281 287 296 302 314 301 290 293 283 284 283 271 254 254 269 257 252 250 246 242 241 242 241 243 247 254 259 265 269 270 275 283 289 292 294 296 300 303 307 311
288 293 289 276 283 270 265 269 265 282 290 286 286 283 270 266 265 263 295 297 277 266 255 253 258 253 246 242 238 238 241 243 244 249 256 261 265 267 270 276 284 289 291 293 296 299 303 308 312
300 284 280 281 263 273 275 266 265 268 274 280 278 289 294 263 273 286 295 301 307 284 267 252 261 258 242 234 229 235 241 243 244 251 257 262 265 267 270 277 283 288 290 292 295 299 303 310 312
292 280 276 277 303 299 293 266 265 272 278 288 285 276 264 267 272 283 284 279 281 299 307 256 252 257 239 230 231 239 242 243 246 254 259 262 264 266 271 279 285 289 289 291 295 299 307 312 313
Height
3192 3193 3194 3195 3199 3196 3195 3197 3196 3197 3198 3198 3198 3199 3199 3198 3199 3202 3198 3198 3198 3198 3197 3197 3197 3197 3197 3197 3197 3197 3197 3197 3196 3196 3196 3196 3195 3195 3194 3194 3193 3192 3191 3191 3191 3191 3191 3191 3190
3192 3194 3195 3195 3197 3195 3196 3196 3196 3197 3197 3198 3197 3197 3198 3198 3198 3198 3198 3197 3197 3197 3197 3197 3197 3197 3197 3197 3197 3198 3198 3197 3197 3197 3197 3196 3196 3195 3195 3194 3193 3192 3191 3190 3190 3190 3190 3190 3189
3193 3194 3195 3195 3195 3195 3195 3195 3196 3197 3197 3197 3197 3197 3196 3197 3197 3197 3197 3196 3196 3196 3196 3196 3196 3197 3197 3197 3197 3198 3198 3198 3198 3197 3197 3197 3197 3196 3196 3195 3194 3193 3191 3190 3190 3190 3189 3189 3189
3193 3195 3196 3194 3194 3195 3195 3195 3196 3197 3197 3197 3197 3196 3195 3195 3195 3196 3195 3195 3195 3195 3195 3195 3196 3196 3196 3196 3197 3197 3198 3198 3197 3197 3198 3197 3197 3197 3196 3196 3194 3193 3192 3191 3191 3190 3189 3189 3189
3193 3193 3193 3192 3193 3194 3194 3194 3195 3195 3196 3196 3195 3194 3193 3193 3193 3193 3193 3194 3194 3194 3193 3194 3195 3195 3195 3196 3196 3197 3197 3197 3197 3197 3197 3197 3196 3196 3196 3195 3194 3193 3192 3191 3191 3191 3190 3189 3189
3191 3192 3191 3191 3192 3193 3193 3193 3193 3193 3194 3194 3192 3191 3191 3191 3191 3191 3192 3192 3192 3192 3193 3193 3193 3194 3194 3195 3196 3196 3197 3197 3197 3197 3197 3197 3196 3195 3195 3194 3193 3193 3192 3191 3191 3190 3190 3190 3189
3190 3190 3189 3190 3190 3190 3192 3191 3191 3191 3191 3190 3190 3189 3188 3189 3189 3189 3190 3191 3191 3191 3191 3192 3192 3193 3193 3194 3195 3195 3196 3197 3197 3197 3196 3196 3196 3194 3193 3193 3192 3191 3190 3190 3190 3189 3188 3188 3188
3188 3188 3187 3187 3188 3188 3190 3190 3190 3189 3189 3189 3188 3185 3186 3186 3186 3187 3188 3189 3190 3190 3191 3191 3191 3191 3192 3193 3194 3194 3195 3195 3195 3195 3195 3195 3194 3193 3192 3191 3190 3190 3189 3188 3188 3187 3187 3186 3186
3185 3186 3184 3184 3185 3187 3188 3188 3188 3188 3186 3186 3184 3184 3184 3183 3184 3184 3186 3187 3188 3189 3189 3189 3190 3190 3191 3192 3192 3193 3193 3193 3193 3193 3193 3193 3192 3191 3190 3189 3188 3187 3187 3186 3186 3185 3184 3183 3182
3181 3180 3180 3182 3183 3183 3184 3184 3184 3184 3183 3182 3182 3181 3180 3180 3180 3181 3183 3184 3185 3186 3186 3187 3188 3188 3188 3189 3189 3190 3191 3191 3191 3191 3191 3191 3190 3188 3187 3186 3185 3185 3184 3184 3183 3182 3181 3180 3179
3177 3176 3178 3178 3179 3179 3180 3179 3179 3179 3177 3178 3180 3178 3177 3177 3177 3178 3179 3181 3182 3182 3183 3184 3185 3185 3186 3186 3187 3187 3187 3188 3188 3188 3188 3187 3187 3185 3184 3183 3182 3182 3181 3181 3180 3179 3178 3176 3176
3174 3173 3174 3175 3175 3174 3174 3174 3173 3172 3173 3175 3176 3175 3172 3173 3174 3175 3175 3177 3178 3179 3180 3180 3181 3182 3183 3183 3184 3184 3184 3184 3184 3185 3184 3184 3183 3182 3181 3179 3178 3178 3177 3177 3176 3175 3174 3173 3172
3170 3170 3170 3171 3170 3169 3169 3168 3168 3163 3170 3170 3170 3170 3169 3169 3169 3171 3172 3171 3172 3174 3174 3176 3176 3177 3178 3179 3180 3180 3181 3181 3181 3181 3180 3180 3179 3178 3177 3176 3175 3174 3174 3173 3172 3170 3169 3168 3167
3167 3166 3166 3166 3166 3164 3163 3163 3162 3159 3165 3164 3164 3165 3164 3164 3164 3164 3164 3166 3167 3168 3169 3170 3171 3172 3173 3174 3175 3176 3176 3176 3177 3176 3175 3175 3174 3173 3172 3172 3171 3170 3169 3168 3167 3166 3164 3163 3162
3163 3162 3161 3161 3161 3160 3159 3156 3151 3159 3161 3159 3158 3158 3158 3158 3158 3158 3158 3159 3161 3162 3162 3163 3164 3165 3167 3168 3168 3169 3170 3171 3171 3170 3170 3170 3169 3168 3168 3167 3166 3165 3164 3163 3162 3161 3159 3158 3157
3160 3159 3156 3157 3158 3158 3156 3144 3152 3154 3153 3152 3153 3152 3151 3151 3152 3152 3151 3152 3153 3154 3155 3156 3156 3158 3160 3161 3162 3163 3164 3165 3165 3165 3164 3164 3163 3163 3162 3162 3161 3160 3159 3157 3157 3155 3154 3153 3152
3156 3154 3152 3152 3155 3153 3149 3140 3146 3147 3146 3145 3145 3145 3144 3144 3144 3144 3145 3147 3147 3148 3148 3148 3149 3151 3153 3154 3155 3156 3157 3158 3159 3159 3158 3158 3157 3156 3156 3156 3156 3155 3153 3152 3151 3150 3149 3147 3146
3153 3151 3149 3148 3151 3146 3140 3132 3138 3139 3137 3136 3137 3137 3136 3136 3137 3138 3139 3139 3140 3140 3140 3140 3141 3142 3144 3145 3146 3148 3150 3152 3152 3152 3152 3152 3151 3151 3150 3150 3150 3149 3147 3146 3145 3144 3142 3140 3140
3149 3147 3144 3145 3145 3139 3132 3124 3126 3130 3126 3127 3128 3129 3129 3128 3132 3130 3131 3131 3131 3131 3131 3131 3133 3136 3137 3138 3140 3142 3144 3145 3145 3145 3145 3145 3145 3145 3144 3144 3144 3142 3141 3139 3138 3136 3134 3132 3132
3145 3141 3138 3137 3140 3133 3126 3110 3115 3118 3113 3116 3120 3120 3120 3120 3122 3122 3123 3122 3122 3123 3124 3123 3125 3128 3130 3132 3134 3135 3137 3137 3137 3138 3138 3138 3138 3138 3138 3137 3137 3136 3134 3132 3130 3128 3127 3125 3123
3141 3138 3136 3133 3134 3127 3121 3090 3102 3104 3106 3105 3107 3110 3111 3110 3111 3113 3112 3113 3113 3112 3115 3115 3117 3120 3122 3124 3125 3127 3128 3129 3130 3131 3131 3130 3131 3131 3131 3130 3129 3128 3127 3124 3122 3120 3119 3118 3115
3129 3136 3130 3128 3129 3122 3123 3090 3092 3093 3094 3098 3100 3102 3101 3102 3101 3102 3102 3102 3103 3104 3105 3106 3107 3109 3112 3115 3115 3118 3120 3121 3123 3122 3122 3123 3124 3124 3123 3123 3122 3121 3119 3117 3114 3112 3110 3109 3106
3125 3127 3126 3124 3123 3120 3110 3118 3060 3076 3083 3089 3094 3094 3093 3092 3090 3089 3091 3093 3094 3094 3095 3096 3096 3099 3102 3105 3107 3109 3111 3113 3113 3114 3115 3116 3117 3117 3116 3116 3115 3114 3112 3109 3106 3105 3102 3100 3097
3124 3120 3120 3117 3117 3111 3097 3112 3063 3077 3075 3080 3083 3085 3087 3087 3087 3085 3085 3084 3083 3084 3084 3084 3085 3088 3092 3095 3097 3100 3102 3104 3104 3106 3107 3109 3109 3109 3109 3109 3108 3106 3104 3101 3099 3097 3094 3091 3088
3118 3117 3114 3111 3111 3095 3093 3098 3054 3064 3077 3080 3081 3082 3082 3081 3079 3076 3076 3074 3073 3072 3072 3074 3076 3078 3081 3085 3088 3092 3094 3095 3097 3098 3100 3101 3102 3102 3101 3102 3101 3099 3097 3094 3092 3090 3087 3084 3081
3114 3115 3113 3108 3100 3088 3089 3073 3061 3068 3070 3072 3072 3072 3071 3072 3072 3070 3069 3067 3065 3063 3065 3068 3069 3070 3073 3077 3081 3084 3086 3087 3089 3091 3093 3094 3094 3094 3094 3095 3094 3092 3089 3087 3084 3083 3079 3076 3072
3110 3109 3108 3101 3089 3088 3071 3063 3060 3064 3065 3064 3063 3064 3063 3064 3062 3060 3060 3060 3059 3058 3060 3061 3063 3065 3067 3070 3073 3076 3078 3079 3082 3084 3085 3086 3087 3087 3087 3087 3087 3084 3082 3079 3076 3074 3071 3068 3063
3109 3105 3101 3097 3090 3073 3060 3059 3053 3057 3060 3055 3053 3052 3050 3050 3050 3048 3048 3051 3051 3051 3052 3054 3055 3057 3060 3063 3066 3069 3071 3073 3075 3076 3077 3079 3079 3080 3080 3080 3079 3077 3074 3072 3069 3066 3063 3060 3056
3099 3096 3095 3088 3081 3068 3061 3047 3052 3051 3048 3044 3044 3043 3043 3041 3038 3040 3040 3038 3041 3043 3044 3046 3048 3049 3051 3054 3057 3060 3063 3065 3067 3068 3070 3071 3071 3072 3073 3073 3072 3070 3067 3064 3062 3059 3056 3051 3047
3090 3086 3085 3080 3070 3064 3057 3040 3042 3043 3042 3038 3036 3035 3034 3032 3029 3030 3032 3030 3030 3033 3036 3037 3039 3042 3044 3047 3050 3053 3056 3058 3060 3061 3062 3063 3064 3064 3065 3065 3064 3062 3059 3057 3054 3051 3047 3043 3038